{"data":{"norad_id":65184,"epoch":"2026-09-20T22:07:41.642400Z","epoch_age_seconds":83938,"freshness":"FRESH","line1":"1 65184U 25175L   26263.92200975  .00011533  00000+0  35890-3 0  9997","line2":"2 65184  97.2821 132.8387 0001907  80.7119 279.4339 15.33455127 62191","mean_motion":15.33455127,"eccentricity":0.0001907,"inclination_deg":97.2821,"raan_deg":132.8387,"arg_perigee_deg":80.7119,"mean_anomaly_deg":279.4339,"bstar":0.0003589,"rev_number":6219,"period_min":93.905584496442,"perigee_km":464.20795975355,"apogee_km":466.81812788026,"semimajor_km":6843.6500438169,"source":"CELESTRAK","updated_at":"2026-09-21T09:00:35.529402Z"}}